Theta_e
301 302 302 302 303 303 303 302 301 301 300 299 299 299 299 304 303 299 300 301 300 299 301 306 311 313 309 313 320 327 328 329 328 327 327 326 324 327 331 331 331 337 337 337 336
303 304 304 304 304 303 303 303 302 301 300 299 299 299 299 306 306 300 300 300 301 301 304 307 309 311 311 313 319 324 329 329 326 325 325 325 325 325 332 332 332 337 336 336 335
304 305 305 305 304 304 303 303 302 301 299 299 299 299 302 307 303 300 301 300 300 303 304 307 310 311 313 312 311 322 327 324 326 326 325 325 325 327 327 330 331 332 335 335 334
306 305 305 304 304 303 302 302 302 300 299 299 300 301 301 302 300 301 301 299 300 304 304 306 311 312 312 310 311 310 311 316 320 322 322 322 324 325 326 326 329 330 334 336 334
305 303 302 302 303 303 303 302 301 299 299 299 302 303 302 300 301 302 301 300 299 300 306 306 308 309 311 310 310 312 311 311 312 312 315 320 322 323 324 325 327 327 329 334 335
303 301 300 301 303 303 303 301 299 298 299 299 301 300 301 301 302 302 302 301 301 300 302 306 307 307 307 308 310 309 308 309 310 311 312 317 320 322 323 324 326 327 329 330 329
300 300 300 301 303 303 301 299 298 299 299 299 300 303 301 302 302 301 302 303 302 302 304 305 307 308 308 307 307 307 307 307 308 310 311 313 316 320 320 321 323 324 326 327 329
300 302 300 303 304 302 299 298 299 299 299 299 303 303 300 302 301 301 302 302 303 304 306 307 308 309 309 308 307 308 308 307 307 309 311 312 315 316 317 318 319 322 324 325 327
301 303 301 304 303 300 298 298 299 299 300 300 301 304 301 302 300 302 302 304 304 305 306 307 308 309 308 306 305 306 305 306 305 305 305 307 310 310 311 315 317 320 322 322 324
301 303 302 304 301 298 298 300 300 300 301 303 300 304 302 302 301 303 302 304 305 305 306 306 307 305 303 304 305 306 306 307 306 305 307 307 306 305 306 308 309 311 312 317 322
302 302 303 303 299 298 298 300 301 302 301 300 300 301 302 301 302 303 302 302 304 305 303 304 304 305 303 304 305 305 306 307 307 307 307 307 306 306 305 306 306 308 310 312 316
302 302 304 301 298 297 298 299 299 298 304 301 299 302 301 301 302 302 302 304 305 304 304 302 303 304 305 305 306 306 307 306 307 307 308 307 307 307 307 306 306 306 308 309 312
302 303 303 300 299 298 297 299 299 300 305 301 301 302 301 302 302 303 303 303 304 304 303 303 303 304 305 306 307 307 307 307 308 308 307 306 305 305 304 304 305 305 306 308 312
302 303 302 298 301 298 297 299 299 303 296 300 301 302 301 302 303 303 303 304 305 305 304 303 304 305 306 306 307 307 307 308 308 308 303 307 307 306 304 304 304 305 306 307 310
303 303 301 298 297 297 297 298 298 303 297 300 299 301 301 302 302 303 303 303 304 304 304 303 305 305 306 306 307 307 307 308 308 308 308 308 307 304 305 305 304 304 307 308 308
302 303 300 298 298 297 298 299 302 299 297 296 301 301 300 302 302 303 302 303 303 302 303 303 304 305 305 307 305 307 307 305 306 308 304 306 305 305 305 306 307 308 306 309 313
302 302 299 298 298 298 298 302 297 296 295 294 297 300 300 300 301 301 302 302 301 297 298 300 302 303 304 302 303 304 302 299 298 306 301 306 308 307 306 308 309 308 308 308 309
303 302 298 298 298 298 301 296 295 288 286 298 300 299 300 299 299 300 301 300 301 300 296 298 297 302 302 301 302 305 304 304 305 302 304 306 304 307 310 310 309 308 307 306 307
303 301 298 298 298 298 300 292 294 291 293 298 296 291 290 299 299 298 299 300 303 300 296 299 301 301 300 302 304 302 308 307 310 298 308 305 307 307 310 309 309 307 306 305 305
303 300 298 298 298 298 295 296 293 299 299 299 294 289 290 289 296 297 297 300 301 302 300 300 299 300 302 301 306 306 307 308 305 309 304 303 305 309 311 310 309 305 304 304 303
302 299 300 298 298 298 292 291 293 299 301 298 292 291 290 292 294 292 293 299 301 300 300 299 300 300 299 301 302 303 304 307 307 309 311 311 307 311 310 310 306 304 303 302 302
300 295 298 298 297 296 291 292 299 299 300 300 299 296 291 291 291 295 297 300 301 299 294 300 301 300 300 300 301 303 307 304 307 308 306 309 309 307 305 306 304 302 302 300 299
299 299 298 299 291 290 295 297 298 300 299 300 299 299 297 291 290 291 298 300 300 299 296 297 293 294 298 300 303 302 302 303 304 305 308 306 307 305 303 304 301 302 300 298 298
299 296 299 299 300 295 290 293 297 299 300 300 300 299 297 293 296 292 298 297 299 298 299 299 298 295 299 300 300 300 301 302 303 306 305 305 304 302 303 301 301 300 299 298 299
299 299 298 296 296 299 297 296 298 296 299 299 298 298 297 291 293 291 295 297 297 298 299 297 291 293 296 298 299 300 302 304 307 306 304 304 303 303 302 300 300 298 298 297 297
300 298 298 298 298 298 298 296 297 295 297 297 296 298 297 293 294 289 293 295 296 295 296 296 293 297 298 299 302 302 303 306 305 304 304 304 303 302 300 299 298 297 297 295 295
300 298 298 297 299 297 297 294 297 298 298 299 297 297 298 297 298 298 297 297 297 294 296 296 298 296 293 298 300 301 305 304 304 306 305 303 302 300 299 299 297 295 295 294 293
Wind_Speed
9 10 11 12 13 14 14 15 16 17 18 17 17 14 8 7 12 18 19 20 19 17 13 9 3 2 3 6 8 5 2 6 7 8 6 22 7 10 4 7 6 4 8 7 17
8 10 11 12 13 13 14 15 16 17 17 17 16 14 8 3 8 20 19 15 15 14 15 17 16 10 5 4 5 7 4 6 5 5 6 15 12 18 7 9 7 6 7 11 19
8 10 11 11 12 12 13 15 16 17 17 16 14 10 10 4 5 16 19 17 14 12 13 11 7 8 6 7 5 5 10 6 13 20 21 15 19 18 7 5 9 13 19 20 22
9 10 11 11 11 11 13 14 15 16 16 15 13 11 13 8 4 15 20 16 13 9 11 10 11 5 4 4 8 7 15 14 11 21 18 9 15 14 19 10 9 12 10 24 25
10 11 11 11 11 11 12 14 15 16 15 11 11 11 9 12 9 17 19 17 13 12 12 13 14 9 4 8 15 3 8 20 22 22 23 20 9 11 23 26 19 12 12 18 23
11 11 11 9 9 10 11 12 14 13 13 7 10 16 20 11 16 16 17 14 17 14 12 9 8 10 9 8 5 15 15 17 17 20 19 12 16 11 7 21 23 21 15 17 20
10 10 8 8 8 9 10 12 12 10 13 10 7 5 14 14 16 15 17 15 14 9 11 10 7 7 10 7 13 14 8 11 10 10 6 16 18 23 25 26 30 32 28 20 26
8 8 7 6 8 9 11 12 10 12 10 8 7 7 5 15 13 17 21 19 13 11 10 9 10 6 4 7 7 4 3 4 6 7 8 10 19 5 17 30 36 32 34 29 29
8 7 6 6 7 9 11 8 7 12 7 8 5 6 4 10 14 18 24 20 15 14 13 6 6 3 5 2 4 3 4 9 9 20 10 4 6 7 20 26 23 29 35 42 34
6 6 4 5 8 9 11 4 4 9 6 4 9 3 12 17 11 18 21 13 16 19 5 5 2 3 4 5 2 8 8 7 9 8 20 20 22 10 24 25 26 27 25 24 27
5 4 3 5 7 11 10 2 4 3 14 9 6 2 10 21 8 16 24 14 14 10 5 4 4 3 6 4 6 7 9 11 13 13 12 16 24 20 18 28 24 25 27 28 29
4 2 1 4 7 10 10 8 8 3 2 6 7 3 9 15 6 20 23 13 8 4 9 7 1 2 6 6 7 9 12 12 9 9 13 14 26 23 20 25 33 31 30 29 30
2 1 1 3 5 8 13 12 7 2 3 3 8 5 11 12 6 15 20 12 4 7 7 1 7 12 5 7 9 8 9 10 12 12 12 12 13 4 8 14 27 33 38 34 30
2 1 1 2 3 8 8 9 5 3 4 7 6 6 13 10 2 10 15 7 6 6 8 6 6 5 8 10 4 5 5 11 13 11 3 6 9 7 12 13 10 23 27 32 32
3 2 1 2 3 6 5 7 2 2 5 5 6 7 11 6 8 6 17 4 4 5 2 7 8 8 11 5 3 8 11 11 16 15 6 10 4 6 11 9 11 8 18 27 31
4 3 1 1 3 5 6 6 1 5 2 5 4 8 7 6 9 9 10 5 5 5 3 12 17 3 4 3 8 12 6 19 9 3 3 4 6 7 4 5 15 18 19 18 19
5 4 1 2 3 5 7 3 5 6 3 7 4 5 4 5 6 8 5 6 4 7 6 10 7 5 6 11 7 7 5 4 5 1 6 3 3 11 12 9 6 12 23 27 25
7 5 2 1 3 5 7 5 7 3 5 2 2 5 4 7 4 7 6 5 6 3 3 4 9 7 10 3 5 4 2 3 4 3 9 11 6 4 2 6 14 24 29 30 37
8 6 3 2 2 4 4 5 7 6 4 1 3 6 5 5 3 6 5 4 2 5 3 5 5 7 16 5 2 4 4 5 5 3 3 3 7 5 13 17 23 26 30 31 32
9 6 4 4 2 3 4 3 2 2 3 2 3 3 1 4 5 5 4 4 3 6 7 3 9 7 7 9 2 4 1 4 2 5 5 5 6 4 15 18 16 21 28 33 32
11 4 3 6 3 1 3 5 3 4 4 3 4 2 2 2 1 2 4 6 5 5 8 4 4 8 8 3 11 4 4 3 4 4 4 6 6 3 11 14 17 19 30 32 31
11 2 4 8 2 2 2 4 4 6 3 2 4 3 4 2 1 2 3 3 6 6 3 2 4 7 10 18 11 4 3 5 4 5 7 8 8 4 18 17 21 25 30 32 27
11 5 8 11 3 1 2 3 4 5 4 4 4 4 4 3 2 3 4 7 3 5 2 3 3 5 10 5 3 5 12 9 11 8 4 4 7 17 24 20 35 30 33 28 24
9 2 4 6 4 6 4 4 2 7 4 5 3 6 4 1 3 3 3 5 5 8 4 3 3 5 7 14 14 15 21 21 11 5 6 7 20 27 22 26 29 34 33 25 18
9 4 7 3 5 6 6 7 4 4 5 8 1 6 5 2 2 4 4 4 7 2 2 2 4 4 14 19 18 18 19 18 12 2 3 14 20 20 22 21 19 30 27 20 12
11 7 7 6 6 8 5 6 9 3 8 4 4 7 7 6 8 6 4 2 5 4 3 3 4 5 12 6 6 15 15 8 7 4 6 14 14 17 32 22 28 29 22 18 13
23 13 7 8 8 5 5 6 8 11 9 5 13 4 6 10 16 17 14 10 8 1 4 3 3 4 6 10 15 3 4 7 9 6 6 9 15 18 24 15 28 28 22 18 17
Wind_Direction
31 26 22 16 13 14 14 11 8 7 6 7 6 10 21 34 40 18 31 13 1 354 351 342 281 346 237 256 246 262 241 232 225 234 263 293 306 292 237 205 218 222 187 196 175
23 15 11 6 4 4 5 5 4 3 5 4 2 2 28 67 34 26 18 1 2 9 8 8 349 352 302 272 241 197 217 227 250 261 258 280 301 294 203 209 219 173 188 180 172
6 359 356 355 356 354 355 357 357 1 4 7 8 25 45 97 60 2 355 357 357 14 11 351 352 329 270 256 253 252 240 270 281 290 290 293 301 303 250 215 204 212 182 187 180
350 347 347 345 350 351 351 353 356 359 6 14 29 78 58 50 62 351 0 359 3 15 18 20 10 13 301 311 336 296 278 276 276 283 296 280 287 285 288 266 246 222 213 207 197
339 339 337 339 343 347 349 353 357 359 9 38 64 65 52 52 17 7 1 9 15 20 31 17 27 6 355 322 330 238 351 328 322 317 316 312 280 274 285 284 281 281 224 211 220
334 335 332 339 340 346 350 353 357 4 12 53 89 71 49 62 15 3 358 13 9 9 21 17 354 327 288 297 304 321 326 315 315 308 305 290 291 276 256 272 277 277 245 231 225
334 336 333 342 344 347 354 358 0 11 20 22 134 35 41 38 12 360 12 9 345 9 6 1 352 348 335 317 322 306 304 313 280 269 259 303 278 262 264 269 275 270 268 251 241
338 350 340 346 345 353 359 1 16 24 27 82 68 51 54 9 9 12 8 12 17 17 358 3 3 320 231 286 297 289 315 321 298 338 267 208 248 204 292 261 260 264 266 265 249
336 345 346 343 348 1 2 7 41 22 85 65 48 52 24 343 16 14 9 355 9 12 341 318 303 299 316 290 334 8 326 320 325 327 339 297 314 304 312 280 264 259 257 260 258
331 337 336 348 1 4 0 26 66 38 64 54 37 73 6 344 6 8 352 344 347 356 20 358 317 24 1 44 321 310 313 301 301 309 311 303 293 284 294 292 289 291 290 281 271
327 321 339 359 7 8 9 52 43 39 44 57 20 21 334 348 24 7 352 358 2 9 18 328 52 350 315 312 288 290 290 287 282 282 282 283 286 290 283 285 280 276 279 279 279
321 293 353 13 19 17 27 67 58 5 34 32 15 7 349 355 337 358 354 16 355 336 3 7 306 308 332 324 326 311 299 295 284 299 293 291 284 282 270 263 268 271 271 271 276
293 230 360 24 23 23 37 51 28 111 84 18 17 16 360 355 359 345 357 351 330 333 353 255 262 298 307 329 329 301 290 295 302 319 301 310 291 276 292 270 265 258 260 258 260
241 194 341 10 32 22 36 23 27 119 80 321 357 358 348 329 346 346 2 3 343 322 335 284 295 329 331 312 312 300 300 318 313 327 297 33 291 296 278 285 282 261 257 254 254
215 200 239 40 27 26 10 358 36 124 61 315 330 344 351 35 313 349 346 341 291 291 352 263 294 305 312 270 356 258 291 297 291 281 316 285 239 289 295 287 272 268 268 267 256
209 207 218 5 27 10 355 354 79 44 282 338 324 359 8 10 344 328 345 16 2 326 262 257 283 254 229 313 298 283 323 301 286 223 269 224 178 266 282 266 352 341 352 341 352
208 207 215 333 359 356 346 349 39 95 323 310 335 360 340 334 346 358 356 23 43 8 339 316 317 309 38 332 332 15 354 319 346 330 221 323 262 256 295 359 2 339 341 337 337
207 202 212 286 350 344 344 50 72 231 228 306 336 345 49 10 344 339 6 13 18 45 314 336 337 353 350 275 273 329 82 240 285 280 288 283 233 235 47 355 352 358 341 332 330
201 201 209 232 314 342 352 51 191 205 192 70 36 62 327 0 10 6 355 347 57 50 88 331 270 310 304 284 351 276 299 258 276 250 258 251 285 267 8 354 357 342 330 324 320
194 198 211 215 265 340 67 199 184 177 144 112 119 117 282 302 23 21 347 293 343 34 36 278 298 272 293 318 352 138 287 318 316 302 291 283 276 260 346 337 341 334 329 322 316
180 188 214 192 189 344 147 212 206 188 155 122 166 93 208 230 204 290 257 298 22 4 354 294 203 293 346 294 303 322 330 352 264 248 284 320 283 61 351 338 335 326 325 316 309
175 123 181 172 100 26 136 187 173 157 176 108 134 134 158 216 277 281 265 257 18 23 335 350 299 288 283 292 276 208 198 8 278 319 273 267 277 121 353 337 329 321 316 312 306
166 144 171 175 139 234 314 285 196 145 178 162 168 157 171 190 25 222 259 275 320 23 12 331 318 319 334 356 18 330 314 302 297 268 243 336 285 338 329 328 329 320 320 316 311
162 115 145 191 155 134 152 241 220 199 151 184 161 151 172 297 189 266 265 291 309 339 311 97 246 198 247 276 305 298 301 304 298 265 313 277 311 315 327 327 326 328 325 324 316
175 190 167 184 232 175 157 157 164 167 190 189 6 200 176 184 263 232 255 281 299 277 65 42 262 223 255 264 278 277 284 297 314 4 316 312 307 309 321 320 326 329 330 340 339
171 162 160 165 148 137 182 217 181 196 160 214 195 203 187 183 194 212 181 223 239 6 54 332 276 296 296 259 228 286 286 285 307 288 286 312 311 326 320 327 348 343 351 7 22
198 185 174 162 154 123 211 197 201 164 208 175 204 168 218 235 245 262 270 259 241 201 314 292 299 336 272 313 313 349 290 336 306 269 296 333 312 317 326 343 359 350 6 23 49